Location: Bartshausen
(51.8454°N, 9.8167°E)
Time: 22:45:29
(UTC+00:00)

COSMOS 2428 - Pass Details

Date: 08 November 2025
Orbit: 847 x 852 km, 70.9° (Epoch: 04 December)

Event Time Altitude Azimuth Distance (km) Brightness Sun altitude
Exits shadow 04:41:26 - 219° (SW) 2,948 5.2 -16.5°
Reaches altitude 10° 04:42:43 10° 220° (SW) 2,469 4.8 -16.3°
Maximum altitude 04:48:22 68° 304° (WNW) 913 2.6 -15.5°
Drops below altitude 10° 04:54:03 10° 28° (NNE) 2,483 5.4 -14.6°
Sets 04:56:32 0° 31° (NNE) 3,422 6.2 -14.2°
